Погода в Фатьянове

Россия / Ярославская область     57°01′43″N   38°54′51″E
темп.,
°C
ветер,
м/с
пор.,
м/с
влажн.,
%
обл.,
%
осадки,
мм/ч
давл.,
гПа
погр.,
м
2 марта, вт
вт200:00+1з61392100 0.0 1009770
03:00+1з6129299 0.0 1007922
06:00+1зсз51297100 0.2 1005819
09:000зсз51196100 0.8 1006957
12:00+1зсз6118996 0.3 10051131
15:00+1сз5118397 0.4 10051089
18:00−1сз51190100 0.1 1006975
21:00−3сз4138897 0.2 1008764
3 марта, ср
ср300:00−5сз5138337 0.1 1009692
03:00−6сз5129049 0.1 1012623
06:00−8сз51291100 0.0 1012527
09:00−6сз5138374 0.0 1014673
12:00−2зсз5108861 0.1 1012782
15:00−1зсз5108780 0.2 10111034
18:00−2зсз51191100 0.1 1009993
21:00−2з51190100 0.3 1008929
4 марта, чт
чт400:00−3з5129599 0.3 1004735
03:00−1зюз5129499 0.6 1001699
06:000з61397100 1.5 997970
09:000з71595100 2.3 9971319
12:00−1зсз51072100 0.3 997976
15:00−1сз4781100 0.3 998853
18:00−4ссз2291100 0.1 99883
21:00−5ссз3895100 0.1 1000305
5 марта, пт
пт500:00−9ссз259664 0.0 1001124
03:00−11ссз239532 0.0 100347
06:00−12зсз22950 0.0 100527
09:00−9з139333 0.2 1006181
12:00−5з3587100 0.1 1007619
15:00−5зсз4678100 0.3 10091023
18:00−8зсз249289 0.0 101093
21:00−10зсз259544 0.0 101287
6 марта, сб
сб600:00−11зсз259623 0.0 1013106
03:00−12сз229645 0.0 101438
06:00−14ссз229370 0.0 101544
09:00−13сз139083 0.0 1015198
12:00−10сз248388 0.1 1016724
15:00−9зсз347994 0.1 1015867
18:00−12з239168 0.0 101341
21:00−14юз239234 0.0 101239